Hauptseite
METAR-TAF:

METAR-TAF

Flughäfen :

Flughafen Magdeburg-Cochstedt

Magdeburg, Deutschland

Breite: 51-51-18N, Länge: 11-25-08E, Höhe: 180 m

Beobachtung

Neuester Wetterbericht von vor 36 Minuten, um 10:20 UTC
Wind 15 kt aus West/Nordwest, variierte zwischen West und Nord/Nordwest
Temperatur 22°C
Luftfeuchtigkeit 53%
Luftdruck 1016 hPa
Sichtweite 10 km oder mehr

METAR: EDBC 221020Z AUTO 30015KT 280V340 9999 // NCD 22/12 Q1016

Zeit: 12:56 (10:56 UTC)


TAF: fehlend

Wetterbeobachtungen und Prognosen von mehr als 4000 Flughäfen (METAR und TAF Bericht).

Die verfügbaren Stationen werden durch gelbe und rote Markierungen auf der Karte dargestellt.

Führen Sie die Maus auf sie, um den Namen der Station zu sehen.

Darauf klicken, um die Beobachtung von Wetterbeobachtungen und Prognosen zu sehen.

Um die Karte zu ändern : klicken Sie auf den grünen Tasten mit einem schwarzen Kreuz Zum Vergrößern, auf den grünen Button mit einem Gedankenstrich zu verkleinern, oder auf die grünen Pfeile für benachbarte Karten.


METAR-TAF: